Cfl Performer — PHLY — position and weather

sailwx.info

Track history (hours):
 
Tides and Currents Weather Stations Pressure Air Temp Water Temp Dewpoint Dewpoint Depression Visibility Wind Speed Wind Dir Waves Ship Positions

Cfl Performer

Last reported at 2014-Jul-30 18:31 UTC. Time now 2014-Jul-30 19:14 UTC.
Position N 54°41' W 001°04'.

Length 117 m; draft 3.6 m.

Type: Cargo ship. MMSI: 244989000.

Date/timePositionNaut miles runAvg speedWind from/ knotsBaromVisibWave heightAir tempDewpointWater temp
2014-Jul-30 18:31N 54°41' W 001°04'0 0.0
2014-Jul-30 17:31N 54°41' W 001°04'0 0.0
2014-Jul-30 16:28N 54°41' W 001°03'0 0.0
2014-Jul-30 15:31N 54°41' W 001°03'0 0.0
2014-Jul-30 14:31N 54°41' W 001°03'0 0.0
2014-Jul-30 13:31N 54°41' W 001°03'0 0.0
2014-Jul-30 12:31N 54°41' W 001°03'0 0.0
2014-Jul-30 11:04N 54°41' W 001°04'0 0.0
2014-Jul-30 10:25N 54°41' W 001°04'0 0.0
2014-Jul-30 09:22N 54°41' W 001°04'0 0.0
2014-Jul-30 08:22N 54°41' W 001°04'0 0.0
2014-Jul-30 07:28N 54°41' W 001°03'0 0.0
2014-Jul-30 06:28N 54°41' W 001°03'0 0.0
2014-Jul-30 05:25N 54°41' W 001°03'0 0.0
2014-Jul-30 04:31N 54°41' W 001°03'0 0.0
2014-Jul-30 03:31N 54°41' W 001°04'0 0.0
2014-Jul-30 02:31N 54°41' W 001°03'0 0.0
2014-Jul-30 01:31N 54°41' W 001°03'0 0.0
2014-Jul-30 00:31N 54°41' W 001°03'0 0.1
2014-Jul-29 23:33N 54°41' W 001°04'6 6.3
2014-Jul-29 22:33N 54°40' W 000°53'1211.8
2014-Jul-29 21:32N 54°35' W 000°34'1010.8
2014-Jul-29 20:33N 54°29' W 000°19'1110.9
2014-Jul-29 19:33N 54°21' W 000°08'1010.4
2014-Jul-29 18:33N 54°12' E 000°03'1010.3
2014-Jul-29 17:33N 54°03' E 000°10'1010.3
2014-Jul-29 16:33N 53°53' E 000°17'1010.2
2014-Jul-29 15:33N 53°43' E 000°22'8 8.3
2014-Jul-29 14:33N 53°35' E 000°19'8 8.3
2014-Jul-29 13:33N 53°34' E 000°05'1010.0
2014-Jul-29 12:31N 53°38' W 000°11'0 0.2
2014-Jul-29 11:31N 53°38' W 000°12'0 0.0
2014-Jul-29 10:25N 53°38' W 000°12'0 0.0
2014-Jul-29 09:31N 53°38' W 000°12'0 0.0
2014-Jul-29 08:25N 53°38' W 000°12'0 0.0
2014-Jul-29 07:28N 53°38' W 000°12'0 0.0
2014-Jul-29 06:22N 53°38' W 000°12'0 0.0
2014-Jul-29 05:31N 53°38' W 000°12'0 0.0
2014-Jul-29 04:28N 53°38' W 000°12'0 0.0
2014-Jul-29 03:22N 53°38' W 000°12'0 0.0
2014-Jul-29 02:31N 53°38' W 000°12'0 0.0
2014-Jul-29 01:31N 53°38' W 000°12'0 0.0
2014-Jul-29 00:31N 53°38' W 000°12'0 0.0
2014-Jul-28 23:31N 53°38' W 000°12'0 0.0
2014-Jul-28 22:31N 53°38' W 000°12'0 0.0
2014-Jul-28 21:31N 53°38' W 000°12'0 0.0
2014-Jul-28 20:31N 53°38' W 000°12'0 0.0
2014-Jul-28 19:31N 53°38' W 000°12'0 0.0
2014-Jul-28 18:31N 53°38' W 000°12'0 0.0
2014-Jul-28 17:22N 53°38' W 000°12'0 0.0
2014-Jul-28 16:28N 53°38' W 000°12'0 0.0
2014-Jul-28 15:31N 53°38' W 000°12'0 0.0
2014-Jul-28 14:28N 53°38' W 000°12'0 0.0
2014-Jul-28 13:31N 53°38' W 000°12'0 0.0
2014-Jul-28 12:31N 53°38' W 000°12'0 0.0
2014-Jul-28 11:34N 53°38' W 000°12'0 0.0
2014-Jul-28 10:34N 53°38' W 000°12'0 0.0
2014-Jul-28 09:31N 53°38' W 000°12'0 0.0
2014-Jul-28 08:28N 53°38' W 000°12'0 0.0
2014-Jul-28 07:31N 53°38' W 000°12'0 0.0
2014-Jul-28 06:31N 53°38' W 000°12'0 0.0
2014-Jul-28 05:34N 53°38' W 000°12'0 0.0
2014-Jul-28 04:34N 53°38' W 000°12'0 0.0
2014-Jul-28 03:34N 53°38' W 000°12'0 0.0
2014-Jul-28 02:34N 53°38' W 000°12'0 0.0
2014-Jul-28 01:34N 53°38' W 000°12'0 0.0
2014-Jul-28 00:34N 53°38' W 000°12'0 0.0
2014-Jul-27 23:28N 53°38' W 000°12'0 0.0
2014-Jul-27 22:31N 53°38' W 000°12'0 0.0
2014-Jul-27 21:31N 53°38' W 000°12'0 0.0
2014-Jul-27 20:31N 53°38' W 000°12'0 0.0
2014-Jul-27 19:34N 53°38' W 000°12'0 0.0
2014-Jul-27 18:34N 53°38' W 000°12'0 0.0
2014-Jul-27 17:34N 53°38' W 000°12'0 0.0
2014-Jul-27 16:34N 53°38' W 000°12'0 0.0
2014-Jul-27 15:34N 53°38' W 000°12'0 0.0
2014-Jul-27 14:31N 53°38' W 000°12'0 0.0
2014-Jul-27 13:34N 53°38' W 000°12'0 0.0
2014-Jul-27 12:33N 53°38' W 000°12'0 0.0
2014-Jul-27 11:34N 53°38' W 000°12'0 0.0
2014-Jul-27 10:34N 53°38' W 000°12'0 0.0
2014-Jul-27 09:27N 53°38' W 000°12'0 0.0
2014-Jul-27 08:27N 53°38' W 000°12'0 0.0
2014-Jul-27 07:33N 53°38' W 000°12'0 0.0
2014-Jul-27 06:33N 53°38' W 000°12'0 0.0
2014-Jul-27 05:33N 53°38' W 000°12'0 0.0
2014-Jul-27 04:33N 53°38' W 000°12'0 0.0
2014-Jul-27 03:30N 53°38' W 000°12'0 0.0
2014-Jul-27 02:33N 53°38' W 000°12'0 0.0
2014-Jul-27 01:33N 53°38' W 000°12'0 0.0
2014-Jul-27 00:33N 53°38' W 000°12'0 0.0
2014-Jul-26 23:30N 53°38' W 000°12'0 0.0
2014-Jul-26 22:33N 53°38' W 000°12'0 0.0
2014-Jul-26 21:27N 53°38' W 000°12'0 0.0
2014-Jul-26 20:33N 53°38' W 000°12'0 0.0
2014-Jul-26 19:30N 53°38' W 000°12'0 0.0
2014-Jul-26 18:33N 53°38' W 000°12'0 0.0
2014-Jul-26 17:27N 53°38' W 000°12'0 0.0
2014-Jul-26 16:33N 53°38' W 000°12'0 0.0
2014-Jul-26 15:33N 53°38' W 000°12'0 0.0
2014-Jul-26 14:30N 53°38' W 000°12'0 0.0
2014-Jul-26 13:33N 53°38' W 000°12'0 0.0
2014-Jul-26 12:30N 53°38' W 000°12'0 0.0
2014-Jul-26 11:33N 53°38' W 000°12'0 0.0
2014-Jul-26 10:33N 53°38' W 000°12'0 0.0
2014-Jul-26 09:33N 53°38' W 000°12'0 0.0
2014-Jul-26 08:33N 53°38' W 000°12'0 0.0
2014-Jul-26 07:33N 53°38' W 000°12'0 0.0
2014-Jul-26 06:33N 53°38' W 000°12'0 0.0
2014-Jul-26 05:34N 53°38' W 000°12'0 0.0
2014-Jul-26 04:30N 53°38' W 000°12'0 0.0
2014-Jul-26 03:27N 53°38' W 000°12'0 0.0
2014-Jul-26 02:30N 53°38' W 000°12'0 0.0
2014-Jul-26 01:33N 53°38' W 000°12'0 0.0
2014-Jul-26 00:33N 53°38' W 000°12'0 0.0
2014-Jul-25 23:33N 53°38' W 000°12'0 0.0
2014-Jul-25 22:33N 53°38' W 000°12'0 0.0
2014-Jul-25 21:33N 53°38' W 000°12'0 0.0
2014-Jul-25 20:33N 53°38' W 000°12'0 0.0
2014-Jul-25 19:33N 53°38' W 000°12'0 0.0
2014-Jul-25 18:33N 53°38' W 000°12'0 0.0
2014-Jul-25 17:34N 53°38' W 000°12'0 0.0
2014-Jul-25 16:33N 53°38' W 000°12'0 0.0
2014-Jul-25 15:31N 53°38' W 000°12'0 0.0
2014-Jul-25 14:25N 53°38' W 000°12'0 0.0
2014-Jul-25 13:25N 53°38' W 000°12'0 0.0
2014-Jul-25 12:33N 53°38' W 000°12'0 0.0
2014-Jul-25 11:27N 53°38' W 000°12'0 0.0
2014-Jul-25 10:33N 53°38' W 000°12'0 0.0
2014-Jul-25 09:33N 53°38' W 000°12'0 0.0
2014-Jul-25 08:33N 53°38' W 000°12'0 0.3
2014-Jul-25 07:34N 53°38' W 000°11'2 1.8
2014-Jul-25 06:33N 53°38' W 000°08'8 8.1
2014-Jul-25 05:34N 53°35' E 000°04'8 7.6
2014-Jul-25 04:34N 53°32' E 000°16'6 6.0
2014-Jul-25 03:33N 53°29' E 000°25'8 7.9
2014-Jul-25 02:34N 53°26' E 000°37'9 9.0
2014-Jul-25 01:33N 53°22' E 000°51'1010.0
2014-Jul-25 00:34N 53°16' E 001°04'1110.8
2014-Jul-24 23:33N 53°08' E 001°16'1110.7
2014-Jul-24 22:34N 52°59' E 001°27'1010.2
2014-Jul-24 21:34N 52°52' E 001°37'9 8.9
2014-Jul-24 20:33N 52°44' E 001°45'7 7.4
2014-Jul-24 19:33N 52°38' E 001°52'7 6.7
2014-Jul-24 18:33N 52°31' E 001°53'7 7.1
2014-Jul-24 17:32N 52°24' E 001°53'8 8.1
2014-Jul-24 16:33N 52°16' E 001°52'9 9.4
2014-Jul-24 15:33N 52°07' E 001°51'1010.5
2014-Jul-24 14:34N 51°56' E 001°49'1110.7
2014-Jul-24 13:33N 51°46' E 001°49'1010.3
2014-Jul-24 12:34N 51°35' E 001°48'1010.4
2014-Jul-24 11:34N 51°25' E 001°44'1110.6
2014-Jul-24 10:34N 51°15' E 001°40'9 8.5
2014-Jul-24 09:34N 51°07' E 001°41'1010.4
2014-Jul-24 08:34N 50°59' E 001°30'9 9.3
2014-Jul-24 07:34N 50°50' E 001°23'9 8.8
2014-Jul-24 06:33N 50°42' E 001°18'9 8.8
2014-Jul-24 05:34N 50°37' E 001°07'12 8.6
2014-Jul-24 04:07N 50°31' E 000°50'5 8.4
2014-Jul-24 03:33N 50°29' E 000°43'8 8.2
2014-Jul-24 02:32N 50°27' E 000°31'8 7.9
2014-Jul-24 01:31N 50°25' E 000°19'17 8.0
2014-Jul-23 23:22N 50°20' W 000°07'7 8.2
2014-Jul-23 22:34N 50°18' W 000°17'9 8.6
2014-Jul-23 21:34N 50°15' W 000°30'198 9.8
2014-Jul-23 01:30N 48°56' W 005°09'  
Track history (hours):
 
Tides and Currents Weather Stations Pressure Air Temp Water Temp Dewpoint Dewpoint Depression Visibility Wind Speed Wind Dir Waves Ship Positions

Cfl Performer

Last reported at 2014-Jul-30 18:31 UTC. Time now 2014-Jul-30 19:14 UTC.
Position N 54°41' W 001°04'.

Length 117 m; draft 3.6 m.

Type: Cargo ship. MMSI: 244989000.

Date/timePositionNaut miles runAvg speedWind from/ knotsBaromVisibWave heightAir tempDewpointWater temp
2014-Jul-30 18:31N 54°41' W 001°04'0 0.0
2014-Jul-30 17:31N 54°41' W 001°04'0 0.0
2014-Jul-30 16:28N 54°41' W 001°03'0 0.0
2014-Jul-30 15:31N 54°41' W 001°03'0 0.0
2014-Jul-30 14:31N 54°41' W 001°03'0 0.0
2014-Jul-30 13:31N 54°41' W 001°03'0 0.0
2014-Jul-30 12:31N 54°41' W 001°03'0 0.0
2014-Jul-30 11:04N 54°41' W 001°04'0 0.0
2014-Jul-30 10:25N 54°41' W 001°04'0 0.0
2014-Jul-30 09:22N 54°41' W 001°04'0 0.0
2014-Jul-30 08:22N 54°41' W 001°04'0 0.0
2014-Jul-30 07:28N 54°41' W 001°03'0 0.0
2014-Jul-30 06:28N 54°41' W 001°03'0 0.0
2014-Jul-30 05:25N 54°41' W 001°03'0 0.0
2014-Jul-30 04:31N 54°41' W 001°03'0 0.0
2014-Jul-30 03:31N 54°41' W 001°04'0 0.0
2014-Jul-30 02:31N 54°41' W 001°03'0 0.0
2014-Jul-30 01:31N 54°41' W 001°03'0 0.0
2014-Jul-30 00:31N 54°41' W 001°03'0 0.1
2014-Jul-29 23:33N 54°41' W 001°04'6 6.3
2014-Jul-29 22:33N 54°40' W 000°53'1211.8
2014-Jul-29 21:32N 54°35' W 000°34'1010.8
2014-Jul-29 20:33N 54°29' W 000°19'1110.9
2014-Jul-29 19:33N 54°21' W 000°08'1010.4
2014-Jul-29 18:33N 54°12' E 000°03'1010.3
2014-Jul-29 17:33N 54°03' E 000°10'1010.3
2014-Jul-29 16:33N 53°53' E 000°17'1010.2
2014-Jul-29 15:33N 53°43' E 000°22'8 8.3
2014-Jul-29 14:33N 53°35' E 000°19'8 8.3
2014-Jul-29 13:33N 53°34' E 000°05'1010.0
2014-Jul-29 12:31N 53°38' W 000°11'0 0.2
2014-Jul-29 11:31N 53°38' W 000°12'0 0.0
2014-Jul-29 10:25N 53°38' W 000°12'0 0.0
2014-Jul-29 09:31N 53°38' W 000°12'0 0.0
2014-Jul-29 08:25N 53°38' W 000°12'0 0.0
2014-Jul-29 07:28N 53°38' W 000°12'0 0.0
2014-Jul-29 06:22N 53°38' W 000°12'0 0.0
2014-Jul-29 05:31N 53°38' W 000°12'0 0.0
2014-Jul-29 04:28N 53°38' W 000°12'0 0.0
2014-Jul-29 03:22N 53°38' W 000°12'0 0.0
2014-Jul-29 02:31N 53°38' W 000°12'0 0.0
2014-Jul-29 01:31N 53°38' W 000°12'0 0.0
2014-Jul-29 00:31N 53°38' W 000°12'0 0.0
2014-Jul-28 23:31N 53°38' W 000°12'0 0.0
2014-Jul-28 22:31N 53°38' W 000°12'0 0.0
2014-Jul-28 21:31N 53°38' W 000°12'0 0.0
2014-Jul-28 20:31N 53°38' W 000°12'0 0.0
2014-Jul-28 19:31N 53°38' W 000°12'0 0.0
2014-Jul-28 18:31N 53°38' W 000°12'0 0.0
2014-Jul-28 17:22N 53°38' W 000°12'0 0.0
2014-Jul-28 16:28N 53°38' W 000°12'0 0.0
2014-Jul-28 15:31N 53°38' W 000°12'0 0.0
2014-Jul-28 14:28N 53°38' W 000°12'0 0.0
2014-Jul-28 13:31N 53°38' W 000°12'0 0.0
2014-Jul-28 12:31N 53°38' W 000°12'0 0.0
2014-Jul-28 11:34N 53°38' W 000°12'0 0.0
2014-Jul-28 10:34N 53°38' W 000°12'0 0.0
2014-Jul-28 09:31N 53°38' W 000°12'0 0.0
2014-Jul-28 08:28N 53°38' W 000°12'0 0.0
2014-Jul-28 07:31N 53°38' W 000°12'0 0.0
2014-Jul-28 06:31N 53°38' W 000°12'0 0.0
2014-Jul-28 05:34N 53°38' W 000°12'0 0.0
2014-Jul-28 04:34N 53°38' W 000°12'0 0.0
2014-Jul-28 03:34N 53°38' W 000°12'0 0.0
2014-Jul-28 02:34N 53°38' W 000°12'0 0.0
2014-Jul-28 01:34N 53°38' W 000°12'0 0.0
2014-Jul-28 00:34N 53°38' W 000°12'0 0.0
2014-Jul-27 23:28N 53°38' W 000°12'0 0.0
2014-Jul-27 22:31N 53°38' W 000°12'0 0.0
2014-Jul-27 21:31N 53°38' W 000°12'0 0.0
2014-Jul-27 20:31N 53°38' W 000°12'0 0.0
2014-Jul-27 19:34N 53°38' W 000°12'0 0.0
2014-Jul-27 18:34N 53°38' W 000°12'0 0.0
2014-Jul-27 17:34N 53°38' W 000°12'0 0.0
2014-Jul-27 16:34N 53°38' W 000°12'0 0.0
2014-Jul-27 15:34N 53°38' W 000°12'0 0.0
2014-Jul-27 14:31N 53°38' W 000°12'0 0.0
2014-Jul-27 13:34N 53°38' W 000°12'0 0.0
2014-Jul-27 12:33N 53°38' W 000°12'0 0.0
2014-Jul-27 11:34N 53°38' W 000°12'0 0.0
2014-Jul-27 10:34N 53°38' W 000°12'0 0.0
2014-Jul-27 09:27N 53°38' W 000°12'0 0.0
2014-Jul-27 08:27N 53°38' W 000°12'0 0.0
2014-Jul-27 07:33N 53°38' W 000°12'0 0.0
2014-Jul-27 06:33N 53°38' W 000°12'0 0.0
2014-Jul-27 05:33N 53°38' W 000°12'0 0.0
2014-Jul-27 04:33N 53°38' W 000°12'0 0.0
2014-Jul-27 03:30N 53°38' W 000°12'0 0.0
2014-Jul-27 02:33N 53°38' W 000°12'0 0.0
2014-Jul-27 01:33N 53°38' W 000°12'0 0.0
2014-Jul-27 00:33N 53°38' W 000°12'0 0.0
2014-Jul-26 23:30N 53°38' W 000°12'0 0.0
2014-Jul-26 22:33N 53°38' W 000°12'0 0.0
2014-Jul-26 21:27N 53°38' W 000°12'0 0.0
2014-Jul-26 20:33N 53°38' W 000°12'0 0.0
2014-Jul-26 19:30N 53°38' W 000°12'0 0.0
2014-Jul-26 18:33N 53°38' W 000°12'0 0.0
2014-Jul-26 17:27N 53°38' W 000°12'0 0.0
2014-Jul-26 16:33N 53°38' W 000°12'0 0.0
2014-Jul-26 15:33N 53°38' W 000°12'0 0.0
2014-Jul-26 14:30N 53°38' W 000°12'0 0.0
2014-Jul-26 13:33N 53°38' W 000°12'0 0.0
2014-Jul-26 12:30N 53°38' W 000°12'0 0.0
2014-Jul-26 11:33N 53°38' W 000°12'0 0.0
2014-Jul-26 10:33N 53°38' W 000°12'0 0.0
2014-Jul-26 09:33N 53°38' W 000°12'0 0.0
2014-Jul-26 08:33N 53°38' W 000°12'0 0.0
2014-Jul-26 07:33N 53°38' W 000°12'0 0.0
2014-Jul-26 06:33N 53°38' W 000°12'0 0.0
2014-Jul-26 05:34N 53°38' W 000°12'0 0.0
2014-Jul-26 04:30N 53°38' W 000°12'0 0.0
2014-Jul-26 03:27N 53°38' W 000°12'0 0.0
2014-Jul-26 02:30N 53°38' W 000°12'0 0.0
2014-Jul-26 01:33N 53°38' W 000°12'0 0.0
2014-Jul-26 00:33N 53°38' W 000°12'0 0.0
2014-Jul-25 23:33N 53°38' W 000°12'0 0.0
2014-Jul-25 22:33N 53°38' W 000°12'0 0.0
2014-Jul-25 21:33N 53°38' W 000°12'0 0.0
2014-Jul-25 20:33N 53°38' W 000°12'0 0.0
2014-Jul-25 19:33N 53°38' W 000°12'0 0.0
2014-Jul-25 18:33N 53°38' W 000°12'0 0.0
2014-Jul-25 17:34N 53°38' W 000°12'0 0.0
2014-Jul-25 16:33N 53°38' W 000°12'0 0.0
2014-Jul-25 15:31N 53°38' W 000°12'0 0.0
2014-Jul-25 14:25N 53°38' W 000°12'0 0.0
2014-Jul-25 13:25N 53°38' W 000°12'0 0.0
2014-Jul-25 12:33N 53°38' W 000°12'0 0.0
2014-Jul-25 11:27N 53°38' W 000°12'0 0.0
2014-Jul-25 10:33N 53°38' W 000°12'0 0.0
2014-Jul-25 09:33N 53°38' W 000°12'0 0.0
2014-Jul-25 08:33N 53°38' W 000°12'0 0.3
2014-Jul-25 07:34N 53°38' W 000°11'2 1.8
2014-Jul-25 06:33N 53°38' W 000°08'8 8.1
2014-Jul-25 05:34N 53°35' E 000°04'8 7.6
2014-Jul-25 04:34N 53°32' E 000°16'6 6.0
2014-Jul-25 03:33N 53°29' E 000°25'8 7.9
2014-Jul-25 02:34N 53°26' E 000°37'9 9.0
2014-Jul-25 01:33N 53°22' E 000°51'1010.0
2014-Jul-25 00:34N 53°16' E 001°04'1110.8
2014-Jul-24 23:33N 53°08' E 001°16'1110.7
2014-Jul-24 22:34N 52°59' E 001°27'1010.2
2014-Jul-24 21:34N 52°52' E 001°37'9 8.9
2014-Jul-24 20:33N 52°44' E 001°45'7 7.4
2014-Jul-24 19:33N 52°38' E 001°52'7 6.7
2014-Jul-24 18:33N 52°31' E 001°53'7 7.1
2014-Jul-24 17:32N 52°24' E 001°53'8 8.1
2014-Jul-24 16:33N 52°16' E 001°52'9 9.4
2014-Jul-24 15:33N 52°07' E 001°51'1010.5
2014-Jul-24 14:34N 51°56' E 001°49'1110.7
2014-Jul-24 13:33N 51°46' E 001°49'1010.3
2014-Jul-24 12:34N 51°35' E 001°48'1010.4
2014-Jul-24 11:34N 51°25' E 001°44'1110.6
2014-Jul-24 10:34N 51°15' E 001°40'9 8.5
2014-Jul-24 09:34N 51°07' E 001°41'1010.4
2014-Jul-24 08:34N 50°59' E 001°30'9 9.3
2014-Jul-24 07:34N 50°50' E 001°23'9 8.8
2014-Jul-24 06:33N 50°42' E 001°18'9 8.8
2014-Jul-24 05:34N 50°37' E 001°07'12 8.6
2014-Jul-24 04:07N 50°31' E 000°50'5 8.4
2014-Jul-24 03:33N 50°29' E 000°43'8 8.2
2014-Jul-24 02:32N 50°27' E 000°31'8 7.9
2014-Jul-24 01:31N 50°25' E 000°19'17 8.0
2014-Jul-23 23:22N 50°20' W 000°07'7 8.2
2014-Jul-23 22:34N 50°18' W 000°17'9 8.6
2014-Jul-23 21:34N 50°15' W 000°30'198 9.8
2014-Jul-23 01:30N 48°56' W 005°09'  

Dump ship's entire track history